Flag for U.S.A. Weather past 2 weeks in Chula Vista, California, U.S.A.

Now
71 °F

Sunny.


Feels Like: 77 °F
Forecast: 53 / 71 °F
Wind: 6 mph from Northwest

Location: Brown Field Municipal Airport

Current Time: Apr 1, 2015 at 3:49:30 PM

Latest Report: Apr 1, 2015 at 2:53 PM


Visibility: 10 mi

Pressure: 29.92 "Hg

Humidity: 51%

Dew point: 52 °F

Location of Chula VistaLocation

Historic Weather in Chula Vista — Graph

°F

Chula Vista temperature yesterday

Maximum temperature yesterday: 71 °F (at 12:53 PM)
Minimum temperature yesterday: 55 °F (at 7:02 AM)
Average temperature yesterday: 62 °F

Past Weeks' High & Low Weather Summary

 TemperatureHumidityPressure
High90 °F (Mar 26, 3:53 PM)100% (Mar 28, 12:53 AM)30.19 "Hg (Mar 28, 12:53 AM)
Low47 °F (Mar 24, 6:53 AM)10% (Mar 26, 3:53 PM)29.92 "Hg (Mar 17, 1:53 PM)
Average64 °F70%30.04 "Hg
* Reported Mar 17 1:53 PM — Apr 1 1:53 PM, Chula Vista, Weather by CustomWeather, © 2015

Note: Actual official high and low records may vary slightly from our data, if they occured in-between our weather recording intervals... More about our weather records

Advertising

Chula Vista weather history for previous 24 hours

 ConditionsComfort  
Time TempWeatherWind HumidityBarometerVisibility
1:53 PM
Wed, Apr 1
71 °FSunny.10 mph51%29.95 "Hg10 mi
12:53 PM71 °FSunny.12 mph51%29.97 "Hg10 mi
11:53 AM69 °FSunny.6 mph55%29.99 "Hg10 mi
10:53 AM67 °FSunny.No wind55%30.01 "Hg10 mi
9:53 AM63 °FSunny.No wind63%30.02 "Hg5 mi
8:53 AM61 °FHaze.No wind67%29.99 "Hg5 mi
7:53 AM59 °FScattered clouds.6 mph72%29.98 "Hg6 mi
6:53 AM58 °FOvercast.5 mph75%29.98 "Hg8 mi
5:53 AM58 °FOvercast.3 mph75%29.96 "Hg10 mi
4:53 AM58 °FOvercast.3 mph75%29.96 "Hg10 mi
3:53 AM58 °FOvercast.7 mph75%29.95 "Hg10 mi
2:53 AM58 °FOvercast.7 mph78%29.98 "Hg10 mi
1:53 AM59 °FOvercast.8 mph78%29.99 "Hg10 mi
12:53 AM59 °FOvercast.No wind81%29.98 "Hg9 mi
11:53 PM
Tue, Mar 31
59 °FOvercast.3 mph81%29.98 "Hg10 mi
10:53 PM59 °FOvercast.No wind84%29.99 "Hg10 mi
9:53 PM57 °FPassing clouds.5 mph87%29.98 "Hg9 mi
8:53 PM58 °FClear.No wind84%29.96 "Hg10 mi
7:53 PM59 °FSunny.No wind81%29.96 "Hg10 mi
6:53 PM62 °FSunny.5 mph73%29.96 "Hg10 mi
5:53 PM65 °FSunny.5 mph66%29.97 "Hg10 mi
4:53 PM66 °FSunny.7 mph65%29.97 "Hg10 mi
3:53 PM67 °FSunny.12 mph66%29.97 "Hg10 mi
Weather by CustomWeather, © 2015

See weather overviewHow to use our weather pages